Weather History for TDPD - September, 2013

Change the Weather History Date:

Sunday, September 15, 2013

  Actual Average Record
Temperature  
Mean Temperature 82 °F -  
Max Temperature 88 °F 84 °F 89 °F (2005)
Min Temperature 75 °F 75 °F 73 °F (1999)
Cooling Degree Days 16    
Growing Degree Days 32 (Base 50)    
Moisture  
Dew Point 78 °F    
Average Humidity 77    
Maximum Humidity 94    
Minimum Humidity 64    
Precipitation  
Precipitation 0.00 in 0.41 in - ()
Sea Level Pressure  
Sea Level Pressure 29.98 in    
Wind  
Wind Speed 6 mph ()    
Max Wind Speed 12 mph    
Max Gust Speed -    
Visibility 8.9 miles    
Events      
Averages and records for this station are not official NWS values.
T = Trace of Precipitation, MM = Missing Value Source: Averaged Metar Reports

Daily Weather History Graph

Daily Weather History Graph

Search for Another Location

Airport or City:

Trip Planner

Search our weather history database for the weather conditions in past years. The results will help you decide how hot, cold, wet, or windy it might be!

Date:

Astronomy

Sep. 15, 2013 Rise Set
Actual Time 5:53 AM AST 6:06 PM AST
Civil Twilight 5:32 AM AST 6:28 PM AST
Nautical Twilight 5:07 AM AST 6:53 PM AST
Astronomical Twilight 4:42 AM AST 7:18 PM AST
Moon 3:03 PM AST (9/15) 1:58 AM AST (9/15)
Length of Visible Light 12h 55m
Length of Day
12h 12m
Waxing Gibbous, 82% of the Moon is Illuminated
Sep 15
Waxing Gibbous
Sep 19
Full
Sep 26
Last Quarter
Oct 4
New
Oct 11
First Quarter

Hourly Weather History & Observations

Time (AST) Temp. Heat Index Dew Point Humidity Pressure Visibility Wind Dir Wind Speed Gust Speed Precip Events Conditions
6:30 AM 77.0 °F - 75.2 °F 94% 29.98 in 6.2 mi West 4.6 mph - N/A   Scattered Clouds
7:00 AM 78.8 °F - 77.0 °F 94% 29.98 in 6.2 mi West 5.8 mph - N/A   Scattered Clouds
8:00 AM 87 °F - 79 °F 70% 30.00 in 17 mi SE 3.5 mph - -   Partly Cloudy
8:00 AM 86.0 °F 99.3 °F 78.8 °F 79% 29.98 in 6.2 mi SE 4.6 mph - N/A   Scattered Clouds
9:00 AM 87.8 °F 102.5 °F 78.8 °F 75% 30.01 in 6.2 mi ESE 6.9 mph - N/A   Scattered Clouds
10:00 AM 87.8 °F 102.5 °F 78.8 °F 75% 30.01 in 6.2 mi SE 8.1 mph - N/A   Scattered Clouds
11:00 AM 88 °F - 78 °F 67% 30.03 in 16 mi ESE 9.2 mph - -   Partly Cloudy
11:00 AM 87.8 °F 102.5 °F 78.8 °F 75% 30.01 in 6.2 mi ESE 9.2 mph - N/A   Scattered Clouds
12:00 PM 87.8 °F 102.5 °F 78.8 °F 75% 30.01 in 6.2 mi ESE 8.1 mph - N/A   Scattered Clouds
1:00 PM 86.0 °F 96.9 °F 77.0 °F 74% 29.98 in 6.2 mi ESE 9.2 mph - N/A   Mostly Cloudy
2:00 PM 89 °F - 78 °F 64% 29.97 in 17 mi ESE 5.8 mph - -   Scattered Clouds
2:00 PM 89.6 °F 104.7 °F 78.8 °F 70% 29.95 in 6.2 mi ESE 5.8 mph - N/A   Mostly Cloudy
3:00 PM 87.8 °F 102.5 °F 78.8 °F 75% 29.95 in 6.2 mi ESE 8.1 mph - N/A   Mostly Cloudy
4:00 PM 84.2 °F 96.1 °F 78.8 °F 84% 29.95 in 6.2 mi SSE 3.5 mph - N/A   Mostly Cloudy
5:00 PM 83 °F - 77 °F 79% 29.95 in 17 mi ESE 3.5 mph - -   Scattered Clouds
5:00 PM 82.4 °F 90.9 °F 77.0 °F 84% 29.95 in 6.2 mi ESE 3.5 mph - N/A   Mostly Cloudy
6:00 PM 84.2 °F 94.1 °F 77.0 °F 79% 29.95 in 6.2 mi SE 4.6 mph - N/A   Mostly Cloudy
7:00 PM 84.2 °F 94.1 °F 77.0 °F 79% 29.95 in 6.2 mi ESE 6.9 mph - N/A   Mostly Cloudy
8:00 PM 84 °F - 77 °F 75% 29.99 in 17 mi East 11.5 mph - -   Partly Cloudy
8:00 PM 84.2 °F 94.1 °F 77.0 °F 79% 29.98 in 6.2 mi East 11.5 mph - N/A   Mostly Cloudy